"Pseudo-MPEC" for C24PCM2

Created 2020 Feb 15 18:07:05 UT using Find_Orb

Click here for an explanation of pseudo-MPECs

 
 Astrometry: 
     C24PCM2  C2020 02 14.29547 08 40 10.53 +19 05 17.7    ~2E87 19.3 GVNEOCPG96
     C24PCM2  C2020 02 14.30103 08 40 11.45 +19 07 22.3    ~2E87 19.3 GVNEOCPG96
     C24PCM2  C2020 02 14.30659 08 40 12.36 +19 09 26.6    ~2E87 19.2 GVNEOCPG96
     C24PCM2  C2020 02 14.31215 08 40 13.26 +19 11 30.1    ~2E87 19.1 GVNEOCPG96
     C24PCM2 KC2020 02 14_pq]k*T96gtobHv!,QAd5?kD4[)DhogL`qZSb!NWdP-?7_:!9*t*734
     C24PCM2 KC2020 02 14N/ac8_[.m-H?A'C*8a4FZK_O'xAstrometryY!]a0DJ#]P^lxEn=734
     C24PCM2 KC2020 02 14fpxcT6JC6_HO4)Nm+1To/XLF/08-U-$vW_fldc]I12];:*%8IhJv734
     C24PCM2 KC2020 02 145Y,'@hredacted;x8wfGa)^d:p!/e_/jQ33/H[oOV1TIr/!80bAn734
     C24PCM2 KC2020 02 14'[d(E)hTt?gaAP/WF8gW0u[(*\@:xa.%wM.B0PP^IrEEHTVnmC#a734
     C24PCM2  C2020 02 14.44470 08 40 36.81 +20 00 23.8    ~2EAq 19.0 GVNEOCPI52
     C24PCM2  C2020 02 14.44502 08 40 36.89 +20 00 30.7    ~2EAq 19.0 GVNEOCPI52
     C24PCM2  C2020 02 14.44535 08 40 36.94 +20 00 38.2    ~2EAq 18.8 GVNEOCPI52
     C24PCM2  C2020 02 14.44567 08 40 37.00 +20 00 45.0    ~2EAq 19.2 GVNEOCPI52
     C24PCM2 KC2020 02 14,#w=uh!e-ca=m7/G;2VqZ#:`Y!f\xGSN53)Ttl;l9RHUIqN%hb\]L01
     C24PCM2 KC2020 02 14#cpX),1P9_?MhM!4hmMuo\k?Ssxv[[Y^x)=[5NfNg+UUYWC!$pvtL01
     C24PCM2 pC2020 02 14Rg9``7\vroZJxQ,gYr;F#qU6Nx8,Hh!Vs;p1wl]F'bx2n?lfZlCQL01
     C24PCM2 KC2020 02 14ZYTLf#:FXJ@sA+JgBJH*H[xA'd!s.-OB@*n`-.-?YM8T2bAT2D_4204
     C24PCM2 KC2020 02 14%7U,0Yd=/`^mTDTb+su21)DM%y9I8'NO64+FGI0/V#c1`*Uro_=v204
     C24PCM2 KC2020 02 14dp53bp;7,Ow-PFKaV's[PSA4/n*n1ZX[JEC@`ZMi14?X_Zh@y;!)204
     C24PCM2 KC2020 02 14ow=$k!rV\*7,OZLinSXAQ82ZFeuHjy?njA@FWJ7=SqiB?wTy,7yrK63
     C24PCM2 KC2020 02 14qy7m!_]TX,xyLx0w5M*`qMH'%@gq?_hsP5NiM)HY[!+Z2\I_gdVnK63
     C24PCM2 KC2020 02 14.86960 08 42 23.57 +22 34 40.9    ~2EM7 19.4 VqNEOCPI93
     C24PCM2 KC2020 02 14.88103308 42 24.95 +22 38 50.7    ~2EMq 19.2 GVNEOCPC95
     C24PCM2 KC2020 02 14j$OIE=t=7-RfvYID8^FxX4BqU,N#P,Sy+pNJLk;YC[VW^ToCG;26598
     C24PCM2 KC2020 02 14]*Ei2I?rs$LG(xlC25YBl=v:w=Vc-9mS]YVRX)V**8\v5nfn62fgK63
     C24PCM2 KC2020 02 14.88366 08 42 26.13 +22 39 43.8    ~2EM7 19.4 VqNEOCPI93
     C24PCM2 KC2020 02 14(dclick6'-*O`g.w`t[pXe.oDc(lTnXAw9_wOf*YoE$;x6YiHxQ=598
     C24PCM2 KC2020 02 14:O[vBikT0hGI?wi#0_e==5.v$VNVNi_c?'R06R]eK4.Oym+ddI'WL01
     C24PCM2 KC2020 02 14W$h+4pNtYnU1XkMe)l6q?pHKZ2N;2`rkNX%x,SWTcBg.IR7;h/o.598
     C24PCM2 KC2020 02 14Y=3:Pa/G(-u`gMF@^U]Bl)t)Dbl:JW]@aEO$l1eBKRorM.M04IrCL01
     C24PCM2 KC2020 02 14`_,0d2BG,]F6a9GM5sY^E,lLq[usSr3IW@ZA,VC99iOU(P\q#;VHL01
     C24PCM2 KC2020 02 14HHNs]Il6AZ`STtt`P=SCa\xi3Z;jvqmxsAqWE=mfQ-?+'nl1eE/L598
     C24PCM2 KC2020 02 14.89994408 42 28.35 +22 45 37.2    ~2EMq 19.9 GVNEOCPC95
     C24PCM2 KC2020 02 14.90338 08 42 29.66 +22 46 48.2    ~2EM7 19.1 VqNEOCPI93
     C24PCM2 KC2020 02 14.91307 08 42 31.36 +22 50 16.2    ~2EM7 19.4 VqNEOCPI93
     C24PCM2 KC2020 02 14(-poB1_r(RJ!NuXsl_D3YOo'AZFACsI+CrMTWE6dIklD$e6^$Zq7C77
     C24PCM2 KC2020 02 14.91883008 42 31.62 +22 52 21.9    ~2EMq 19.3 GVNEOCPC95
     C24PCM2 KC2020 02 140@+Uex8O)5!0i3/YQX$C(.mf2M8J72BwAa#tS-Wh.h1AwjhereL0160
     C24PCM2 KC2020 02 14Io2Q#Yrj-0nxvjuRS8_`INn7_ji*ySfe^iEV3,@'^qL4i$g[=M*kC77
     C24PCM2 KC2020 02 14uB+?ei6dv)ZkNkY4e:s6f-%DN`b!kSvg8pR',pW.ylS(72pMCm9*160
     C24PCM2 KC2020 02 14r8X33X-dyFZQ'f!_tTQM6h:-DgP7Z5drmwL'UZkT%_-k:Fenwl+?160
     C24PCM2 KC2020 02 14,ldMv!.1eZY-:qA_%Gd.UXUt',ffLsX6F.k.@1forCSM*myK,Xrp160
     C24PCM2 KC2020 02 14QZ%/iyjv?Vl4l9w7!=HDJPN=)y#;Ksl`RVO+F%JW'=Es0B11_30cC77
     C24PCM2 KC2020 02 14=8Z8]=0bWb-m?fvn5AAEd,V#t@g7YG8K+.hopXi-%.sw^A2%cWCI160
     C24PCM2 pC2020 02 14h!C.h[giM8N[[D+[th[\;Y@7kIC#7DGEf(3V/%*D`NOA*$cf`%E[595
     C24PCM2 KC2020 02 14pj[J9XM*#t*CVqyev^/]29Xq=B7W!68qsAtRnX/ibRE3,e0jNGVg203
     C24PCM2 KC2020 02 14%M^!T.M5(n/4=gw`*)_q5J[Yy(6@b=%=6utj)G%ephS30PsnZ2eI595
     C24PCM2 KC2020 02 14]G]6)s0Ejicd]KH^P3Tsgg)q:w+MUdclTmedl/TUjrl;@QET+uM!595
     C24PCM2 KC2020 02 14lARxHo-2Xyf%+r'_'qWNfR%f,d*'7`MY8K'-2n@e4E)?q1XS\j'#203
     C24PCM2 KC2020 02 14B,i(pMcb36uLV3(JSn9SwX$bkWy[8Wxk_IH1R8`XTE]ASQZ,(ldE595
     C24PCM2 KC2020 02 14]BDr4O3k4\c6moO-']IMtD%Xf.KP-bL+5a+dtPS0mCWcLdD03q^X203
     C24PCM2 KC2020 02 15QdjqL;HYXNdGiIe=yMl*/hnTR\%7nWU^('TP:2Y$YH'Df=9L3x\U958
     C24PCM2 KC2020 02 15l6.NoyBT'/5[9OGr-ZA4XanO@bxElsb%ph3QQfk+3c8m^%EtU:=R958
     C24PCM2 KC2020 02 15q5w=;K%tAH-Lyc8DnK.`rFfwl:,l/JD_Bw!G#uh%]nX,Wo1eU)1v958
     C24PCM2 KC2020 02 15ZW6g#EkH%PD#+kZ[39r[Krg(AxGw[3Mojc6nc'ph2nEq9YRr$axQW34
     C24PCM2 KC2020 02 15NrLNIa;vV+:mS#NIE`qEX0$d6QCwOtK/FQ7plRlI^`pkcxo/_fTqW34
     C24PCM2 KC2020 02 15w253c2el,6SB9#4lI7*0aus`j\yWjJ.#9A@L,g2wi?s\Ba(Fy2V:W34
     C24PCM2 KC2020 02 15b)R@Scd#qA=mbCSOU*ru#Tq?]=rIs21Wgw@[axS)oE8SNm8FBoT:W34
     C24PCM2 KC2020 02 154kW,o+s`xmZZ.X3kMg6?@gX/Ns#5I3tvn6\l]pLkO9]VMv!F=3d;104
     C24PCM2 KC2020 02 157*XVs[CmW7]m*@c01lJHI*Py+vs`v4Rl.y'QF^C)+MIo75a;7dFgW34
     C24PCM2 KC2020 02 15c+=Y$$Vm0696AI6%l@1sCZeXAp,7IfU]D397C)Q;?rd0Q1P^svI,104
     C24PCM2 KC2020 02 15r*VX0m[vAiW22acMZ5ljAWt];n4?T`I0YWy04r+#O=6j[=%JcIk@104
     C24PCM2  C2020 02 15.13697 08 43 25.79 +24 09 26.0    ~2F3b 19.3 GVNEOCPI52
     C24PCM2  C2020 02 15.13741 08 43 25.84 +24 09 35.2    ~2F3b 19.3 GVNEOCPI52
     C24PCM2  C2020 02 15.13785 08 43 25.96 +24 09 44.5    ~2F3b 19.2 GVNEOCPI52
     C24PCM2  C2020 02 15.13828 08 43 26.00 +24 09 53.4    ~2F3b 18.9 GVNEOCPI52
     C24PCM2 KC2020 02 15DO6l=/#X0ukAN!UF`YP$It9fSc*#U$!^:GU#GX[1-M,5(b6iu@GDH21
     C24PCM2 KC2020 02 15:`dH#nK2spg'Kk(]9D-yZ6aJY\jZ*@k,w9W0f7T,yCY9hg9#TL6kH21
     C24PCM2 KC2020 02 15pqj-g0Qv02*(])a=v)*5+aDWw5MG`(7WiXg-0=qB:_)U%_`oj!9RH21
     C24PCM2 KC2020 02 15()yh16yIfbY^YU`3oEJB/7T*0p29pT%`T%/tAB2UQrhFr_KN'4jrH21
     C24PCM2 KC2020 02 15BbVRYBl)vqC*P-YLOk''dI'6.,diA.;=qqp*9b3j30N==-iGyJ(=850
     C24PCM2 KC2020 02 15NcS\pqk%A.vm$`@m*-XYKuf:v??$\mBi)8`c]f_kRJw8DjC,HVWx850
     C24PCM2 KC2020 02 15BKtjSR7OBAg\*$iI?ushr`e$cA5a=`53+BfBqb=8D!Ef@u96ceP(850
     C24PCM2 KC2020 02 15C9IXT@?DT$@@8\*tG[?gUnZkWv_C5bD)uB7ybWyT9q_sk`Ue'0Ya850
     C24PCM2 KC2020 02 15Vk;RP_Ama?v6a35JDh$7`=d+#sJ**^F:OaFYFAaawifgU_XoCT%dH36
     C24PCM2 KC2020 02 15c0nlL:%L\,4wbey,,Ma?,0AOd!ECf,PnRc2OE=v\Ofh/:)NF9pOXH36
     C24PCM2 KC2020 02 15KN!7NbBCnD,M+Dj[%'0Eo@_Sn_F4$j=Z[kB#hjNqexplanationOH36

Station data:
(104) San Marcello Pistoiese  (N44.063037 E10.804200)  Italy. 0.40-m f/5
   reflector.
(160) Castelmartini  (N43.823061 E10.841440)  Italy.
(203) GiaGa Observatory  (N45.541408 E8.995500)  Italy. 0.13-m f/6.4
   refractor.
(204) Schiaparelli Observatory  (N45.867933 E8.770800)  Italy.  Observer L.
   Buzzi. 0.60-m f/4.64 Newtonian + CCD.
(595) Farra d'Isonzo  (N45.915734 E13.525780)  Italy.  Observers L.
   Bittesini, F. Fabris, E. Pettarin, F. Piani. Measurer E. Pettarin. 0.30-m
   f/4.5 reflector + CCD.
(598) Loiano  (N44.259208 E11.334090)  Italy.  Observers A. Buzzoni, R.
   Gualandi, F. Matassoni. Measurers M. Micheli, A. Buzzoni, C. Colombo, P.
   Di Lizia. 1.52-m f/8 Ritchey-Chrétien + CCD.
(734) Farpoint Observatory, Eskridge  (N38.890107 W96.001400)  US/Kansas.
   Observer G. Hug. 0.69-m reflector + CCD.
(850) Cordell-Lorenz Observatory, Sewanee  (N35.204094 W85.919800)
   US/Tennessee. 0.3-m Schmidt-Cassegrain.
(958) Observatoire de Dax  (N43.693327 W1.030390)  France.
(C77) Bernezzo Observatory  (N44.385250 E7.453500)  Italy.
(C95) SATINO Remote Observatory, Haute Provence  (N43.932042 E5.712390)
   France. 0.60-m f/3.2 Newtonian reflector + CCD.
(G96) Mt. Lemmon Survey  (N32.442754 W110.788720)  US/Arizona.  Observers T.
   A. Pruyne, B. M. Africano, E. J. Christensen, G. A. Farneth, D. C. Fuls,
   A. R. Gibbs, A. D. Grauer, H. Gröller, J. A. Johnson, R. A. Kowalski, S.
   M. Larson, G. J. Leonard, D. Rankin, R. L. Seaman, F. C. Shelly. 1.5-m
   reflector + 10K CCD.
(H21) Astronomical Research Observatory, Westfield  (N39.483057 W87.968270)
   US/Illinois. 0.76-m f/3.0 astrograph + CCD.
(H36) Sandlot Observatory, Scranton  (N38.797693 W95.706400)  US/Kansas.
   Observer G. Hug. 0.56-m reflector + CCD.
(I52) Steward Observatory, Mt. Lemmon Station  (N32.442547 W110.788920)
   US/Arizona.  Observers T. A. Pruyne, B. M. Africano, E. J. Christensen, G.
   A. Farneth, D. C. Fuls, A. R. Gibbs, A. D. Grauer, H. Gröller, J. A.
   Johnson, R. A. Kowalski, S. M. Larson, G. J. Leonard, D. Rankin, R. L.
   Seaman, F. C. Shelly. 1.0-m reflector + CCD.
(I93) St Pardon de Conques  (N44.558710 W0.203000)  France.  Observer F.
   Losse. 0.40-m f/3.7 reflector + CCD.
(K63) G. Pascoli Observatory, Castelvecchio Pascoli  (N44.082410 E10.462000)
   Italy.
(L01) Višnjan Observatory, Tičan  (N45.290900 E13.749300)  Croatia.
   Observers K. Korlević, E. Pettarin. Measurer E. Pettarin. 1.0-m f/2.9
   reflector + CCD.
(W34) Squirrel Valley Observatory, Columbus  (N35.225393 W82.154700)
   US/North Carolina.  Observer R. L. Flynn. 0.35-m f/1.9 Schmidt-Cassegrain
   + CCD.

Orbital elements:  C24PCM2
   Perihelion 2019 Dec 17.347543 +/- 0.0989 TT =  8:20:27 (JD 2458834.847543)
Epoch 2020 Feb 15.0 TT = JDT 2458894.5   Earth MOID: 0.0535   AutoNEOCP
M  49.95104084 +/- 0.10             (J2000 ecliptic)
n   0.83736770 +/- 0.000439         Peri.  300.06635 +/- 0.10
a   1.11478703 +/- 0.000389         Node   143.73337 +/- 0.0010
e   0.1122619 +/- 0.000231          Incl.   21.25476 +/- 0.025
P   1.18/429.91d           H 24.8   G  0.15   U  7.6  
q 0.98963882 +/- 0.000183    Q 1.23993524 +/- 0.000667
From 77 observations 2020 Feb. 14-15 (22.4 hr); mean residual 0".41
Residuals in arcseconds: 
200214 G96  .03-  .30-    200214 598  .14-  .31+    200215 958  .25+  .12+    
200214 G96  .07+  .15-    200214 L01  .19+  .13-    200215 958  .02-  .24-    
200214 G96  .00   .19-    200214 598  .06-  .21+    200215 W34  .48+  .07-    
200214 G96  .25-  .94-    200214 L01  .06+  .02-    200215 W34  .11+  .73-    
